User: anonymous   Login
Location: Churchill
(58.7670°N, 94.1670°W)
Time: 12:14:41
(UTC-05:00)
Language:

Cosmos 2142 Rocket - Orbit

View from above orbital plane
View from above orbital plane
View from above satellite
View from above satellite

Ground track
Ground track

The orbit data is extracted from the following two-line orbital elements,

1 21231U 91029B   15239.15478645  .00000056  00000-0  42337-4 0  9994
2 21231 082.9492 237.5463 0033715 274.0172 134.2392 13.75683803223035
Epoch (UTC): 27 August 2015 03:42:53
Eccentricity: 0.0033715
inclination: 82.9492°
perigee height: 954 km
apogee height: 1004 km
right ascension of ascending node: 237.5463°
argument of perigee: 274.0172°
revolutions per day: 13.75683803
mean anomaly at epoch: 134.2392°
orbit number at epoch: 22303

The dashed part of the orbit path shows where the satellite is in the earth's shadow,  

DLR